Zurück zum Katalog

QIANFAN-176

AktivKommunikationPO
NORAD 69393·PAYLOAD·🇨🇳 China

Gestartet Jun 4, 2026 von Taiyuan Satellite Launch Center

Loading…

Nächste Überflüge (nächste 24 Stunden)

TLE

AktuellSource: Space-Track

Epoche: Sep 14, 2026, 21:04 UTC

1 69393U 26124M   26257.87800347  .00000130  00000-0  18260-3 0  9998
2 69393  89.0057 352.5377 0001848 101.1743 258.9616 13.51020357 14167

Verfolge QIANFAN-176 in Echtzeit mit AllMySat

Download on the App Store